Location: ECC Obs
(38.4314°N, 90.9815°W)
Time: 04:49:02
(UTC-05:00)

Altair - All Passes

Search period start: 30 March 2020 00:00
Search period end: 09 April 2020 00:00
Orbit: 1502 x 1682 km, 47.2° (Epoch: 29 March)

Date Brightness Start Highest point End Pass type
(mag) Time Alt. Az. Time Alt. Az. Time Alt. Az.
30 Mar - 00:09:32 10° WNW 00:16:34 25° SW 00:23:45 10° S visible
30 Mar - 13:20:45 10° S 13:27:35 23° SE 13:34:16 10° E daylight
30 Mar - 15:21:50 10° SW 15:31:13 76° SE 15:40:23 10° ENE daylight
30 Mar - 17:27:16 10° W 17:36:20 55° NNW 17:45:20 10° ENE daylight
30 Mar - 19:33:27 10° WNW 19:42:24 53° N 19:51:23 10° E visible
30 Mar - 21:38:29 10° WNW 21:47:42 85° SSW 21:57:05 10° SE visible
30 Mar - 23:44:09 10° WNW 23:51:30 28° SW 23:59:03 10° S visible
31 Mar - 12:56:10 10° S 13:02:33 20° SE 13:08:47 10° E daylight
31 Mar - 14:56:43 10° SW 15:06:04 71° SE 15:15:13 10° ENE daylight
31 Mar - 17:01:58 10° W 17:11:06 57° NNW 17:20:07 10° ENE daylight
31 Mar - 19:08:13 10° WNW 19:17:08 52° N 19:26:05 10° E daylight
31 Mar - 21:13:19 10° WNW 21:22:33 90° SW 21:31:55 10° ESE visible
31 Mar - 23:18:48 10° WNW 23:26:27 30° SW 23:34:17 10° S visible
01 Apr - 12:31:40 10° SSE 12:37:30 18° SE 12:43:13 10° E daylight
01 Apr - 14:31:36 10° SW 14:40:57 66° SE 14:50:03 10° ENE daylight
01 Apr - 16:36:40 10° W 16:45:52 59° NNW 16:54:55 10° ENE daylight
01 Apr - 18:42:58 10° WNW 18:51:53 51° N 19:00:47 10° E daylight
01 Apr - 20:48:09 10° WNW 20:57:23 86° NNE 21:06:44 10° ESE visible
01 Apr - 22:53:29 10° WNW 23:01:23 33° SW 23:09:27 10° S visible
02 Apr - 12:07:17 10° SSE 12:12:28 16° SE 12:17:32 10° E daylight
02 Apr - 14:06:32 10° SW 14:15:50 61° SE 14:24:51 10° ENE daylight
02 Apr - 16:11:23 10° W 16:20:38 61° NNW 16:29:44 10° ENE daylight
02 Apr - 18:17:42 10° WNW 18:26:37 50° N 18:35:30 10° E daylight
02 Apr - 20:22:59 10° WNW 20:32:13 81° NNE 20:41:32 10° ESE visible
02 Apr - 22:28:12 10° WNW 22:36:19 37° SW 22:44:36 10° SSE visible
03 Apr - 11:43:06 10° SSE 11:47:26 14° ESE 11:51:42 10° E daylight
03 Apr - 13:41:28 10° SW 13:50:42 57° SE 13:59:40 10° ENE daylight
03 Apr - 15:46:06 10° WSW 15:55:24 64° NNW 16:04:33 10° ENE daylight
03 Apr - 17:52:26 10° WNW 18:01:21 49° N 18:10:13 10° ENE daylight
03 Apr - 19:57:49 10° WNW 20:07:02 77° NNE 20:16:19 10° ESE visible
03 Apr - 22:02:56 10° WNW 22:11:15 40° SW 22:19:43 10° SSE visible
04 Apr - 11:19:13 10° SE 11:22:24 12° ESE 11:25:32 10° ESE daylight
04 Apr - 13:16:27 10° SSW 13:25:36 53° SE 13:34:28 10° ENE daylight
04 Apr - 15:20:49 10° WSW 15:30:12 67° NNW 15:39:22 10° ENE daylight
04 Apr - 17:27:09 10° WNW 17:36:06 49° N 17:44:56 10° ENE daylight
04 Apr - 19:32:38 10° WNW 19:41:51 73° NNE 19:51:06 10° ESE daylight
04 Apr - 21:37:41 10° WNW 21:46:10 44° SW 21:54:48 10° SSE visible
05 Apr - 10:56:32 10° SE 10:57:22 10° ESE 10:58:13 10° ESE daylight
05 Apr - 12:51:26 10° SSW 13:00:30 48° SE 13:09:16 10° ENE daylight
05 Apr - 14:55:33 10° WSW 15:04:59 70° NNW 15:14:12 10° ENE daylight
05 Apr - 17:01:52 10° WNW 17:10:50 49° N 17:19:40 10° ENE daylight
05 Apr - 19:07:27 10° WNW 19:16:39 70° NNE 19:25:51 10° ESE daylight
05 Apr - 21:12:27 10° WNW 21:21:05 48° SW 21:29:50 10° SSE visible
06 Apr - 12:26:28 10° SSW 12:35:23 45° SE 12:44:02 10° ENE daylight
06 Apr - 14:30:17 10° WSW 14:39:47 74° NNW 14:49:01 10° ENE daylight
06 Apr - 16:36:34 10° WNW 16:45:34 49° N 16:54:24 10° ENE daylight
06 Apr - 18:42:16 10° WNW 18:51:27 67° NNE 19:00:36 10° ESE daylight
06 Apr - 20:47:14 10° WNW 20:56:00 52° SW 21:04:51 10° SSE visible
06 Apr - 22:56:31 10° WSW 22:59:06 11° WSW 23:01:41 10° SW visible
07 Apr - 12:01:30 10° SSW 12:10:17 41° SE 12:18:48 10° ENE daylight
07 Apr - 14:05:01 10° WSW 14:14:35 77° NNW 14:23:51 10° ENE daylight
07 Apr - 16:11:17 10° WNW 16:20:17 50° N 16:29:09 10° ENE daylight
07 Apr - 18:17:04 10° WNW 18:26:15 64° NNE 18:35:21 10° ESE daylight
07 Apr - 20:22:01 10° WNW 20:30:54 56° SW 20:39:51 10° SSE visible
07 Apr - 22:30:12 10° W 22:34:05 13° WSW 22:38:00 10° SSW visible
08 Apr - 11:36:35 10° SSW 11:45:12 38° SE 11:53:32 10° ENE daylight
08 Apr - 13:39:47 10° WSW 13:49:24 81° NNW 13:58:43 10° ENE daylight
08 Apr - 15:45:58 10° W 15:55:02 50° N 16:03:54 10° ENE daylight
08 Apr - 17:51:52 10° WNW 18:01:01 61° NNE 18:10:05 10° E daylight
08 Apr - 19:56:49 10° WNW 20:05:48 61° SW 20:14:49 10° SE visible
08 Apr - 22:04:17 10° W 22:09:04 15° SW 22:13:53 10° SSW visible
